Grizu-263a (51025 NORAD) Tracking and Keplerian Element Data

This shows tracking and keplerian element data for the satellite.

Feedback or suggestion? Click here.




ElementValue
Catalog51025
NameGrizu-263a
Epoch Orbit9001
Epoch Day238.76208306
Epoch Year2023
RAAN313.9727
Inclination97.4367
Eccentricity0.0006369
Argument of Perigee274.065
Mean Anonmoly85.9881
Mean Motion15.64194616
Decay Rate0.0023378
L11 51025U 22002AT 23238.76208306 .00233780 00000-0 23960-2 0 9994
L22 51025 97.4367 313.9727 0006369 274.0650 85.9881 15.64194616 90013



Live tracking and technical data element details for Grizu-263a (NORAD 51025). Grizu-263a can be tracked NOW for your location showing map with azimuth and elevation plus other details from your city location.







IsCatalogInMostPopularTable: catalog: 51025, numindb: 49
Update: records affected: 1



GetName: 51025 Grizu-263a

Hit Count: updated at: Thu, 23 Jan 2025 17:31:00 GMT